San Antonio, TX

1:03 PM CST on February 08, 2016 (GMT -0600)
Stinson Municipal

Weather History for KSSF - January, 2014

Change the Weather History Date:

Wednesday, January 1, 2014

  Actual Average Record
Temperature  
Mean Temperature 51 °F -  
Max Temperature 61 °F 62 °F 84 °F (2006)
Min Temperature 41 °F 39 °F 32 °F (2001)
Degree Days  
Heating Degree Days 14    
Growing Degree Days 1 (Base 50)    
Moisture  
Dew Point 42 °F    
Average Humidity 68    
Maximum Humidity 86    
Minimum Humidity 59    
Precipitation  
Precipitation 0.00 in - - ()
Sea Level Pressure  
Sea Level Pressure 30.12 in    
Wind  
Wind Speed 2 mph (WSW)    
Max Wind Speed 8 mph    
Max Gust Speed -    
Visibility 8 miles    
Events      
Averages and records for this station are not official NWS values.
T = Trace of Precipitation, MM = Missing Value Source: NWS Daily Summary

Daily Weather History Graph

Daily Weather History Graph

Search for Another Location

Airport or City:

Trip Planner

Search our weather history database for the weather conditions in past years. The results will help you decide how hot, cold, wet, or windy it might be!

Date:

Astronomy

Jan. 01, 2014 Rise Set
Actual Time 7:28 AM CST 5:46 PM CST
Civil Twilight 7:02 AM CST 6:12 PM CST
Nautical Twilight 6:32 AM CST 6:42 PM CST
Astronomical Twilight 6:03 AM CST 7:11 PM CST
Moon 7:24 AM CST (1/1) 6:27 PM CST (1/1)
Length of Visible Light 11h 10m
Length of Day
10h 18m
New Moon, 0% of the Moon is Illuminated
Jan 1
New Moon
Jan 7
First Quarter
Jan 15
Full
Jan 23
Last Quarter
Jan 30
New

Hourly Weather History & Observations

Time (CST) Temp. Windchill Dew Point Humidity Pressure Visibility Wind Dir Wind Speed Gust Speed Precip Events Conditions
12:53 AM 42.1 °F - 33.1 °F 70% 30.25 in 4.0 mi Calm Calm - N/A   Haze
1:53 AM 41.0 °F - 34.0 °F 76% 30.24 in 5.0 mi Calm Calm - N/A   Haze
2:53 AM 42.1 °F - 36.0 °F 79% 30.23 in 5.0 mi Calm Calm - N/A   Haze
3:53 AM 44.1 °F - 35.1 °F 71% 30.22 in 5.0 mi Calm Calm - N/A   Haze
4:53 AM 44.1 °F - 34.0 °F 68% 30.19 in 7.0 mi Calm Calm - N/A   Overcast
5:53 AM 43.0 °F - 34.0 °F 71% 30.19 in 8.0 mi Calm Calm - N/A   Overcast
6:53 AM 42.1 °F 40.2 °F 35.1 °F 76% 30.18 in 6.0 mi South 3.5 mph - N/A   Haze
7:53 AM 43.0 °F - 35.1 °F 74% 30.18 in 5.0 mi Calm Calm - N/A   Haze
8:53 AM 46.9 °F - 34.0 °F 61% 30.19 in 9.0 mi West 4.6 mph - N/A   Clear
9:53 AM 52.0 °F - 37.9 °F 59% 30.19 in 10.0 mi WSW 8.1 mph - N/A   Scattered Clouds
10:53 AM 53.1 °F - 39.9 °F 61% 30.18 in 10.0 mi SW 4.6 mph - N/A   Overcast
11:53 AM 55.9 °F - 42.1 °F 60% 30.14 in 10.0 mi WSW 5.8 mph - N/A   Overcast
12:53 PM 57.9 °F - 44.1 °F 60% 30.10 in 10.0 mi SW 4.6 mph - N/A   Overcast
1:06 PM 59.0 °F - 44.6 °F 59% 30.08 in 10.0 mi West 8.1 mph - N/A   Overcast
1:53 PM 59.0 °F - 45.0 °F 60% 30.07 in 10.0 mi SW 6.9 mph - N/A   Overcast
2:53 PM 60.1 °F - 46.9 °F 62% 30.05 in 10.0 mi Variable 5.8 mph - N/A   Overcast
3:53 PM 60.1 °F - 46.9 °F 62% 30.04 in 10.0 mi WSW 4.6 mph - N/A   Overcast
4:53 PM 61.0 °F - 48.0 °F 62% 30.04 in 10.0 mi WSW 3.5 mph - N/A   Overcast
5:53 PM 60.1 °F - 48.0 °F 64% 30.03 in 10.0 mi Calm Calm - N/A   Overcast
6:53 PM 60.1 °F - 48.0 °F 64% 30.03 in 10.0 mi Calm Calm - N/A   Overcast
7:53 PM 59.0 °F - 48.9 °F 69% 30.04 in 10.0 mi Calm Calm - N/A   Overcast
8:53 PM 57.9 °F - 48.9 °F 72% 30.06 in 10.0 mi Calm Calm - N/A   Overcast
9:53 PM 57.9 °F - 48.9 °F 72% 30.06 in 10.0 mi Calm Calm - N/A   Overcast
10:53 PM 55.9 °F - 48.9 °F 77% 30.07 in 9.0 mi Calm Calm - N/A   Mostly Cloudy
11:14 PM 53.6 °F - 48.2 °F 82% 30.07 in 9.0 mi Calm Calm - N/A   Partly Cloudy
11:53 PM 52.0 °F - 48.0 °F 86% 30.08 in 7.0 mi Calm Calm - N/A   Clear